DW4640 Weather Reports


time (UTC)temp
F
wind
direction
speed
knots
gust
knots
rain 1hr
in
rain 24hr
in
rain mn
in
humidity
%
barometer
mb
20260505111547 55 259 0.0 4.3 0.00 0.00 0.00 63 1008.5
20260505101546 50 273 0.0 0.0 0.00 0.00 0.00 58 1008.4
20260505100037 50 274 0.0 0.0 0.00 0.00 0.00 57 1008.4
20260505094609 50 250 0.0 0.0 0.00 0.00 0.00 58 1008.4
20260505093033 49 250 0.0 0.0 0.00 0.00 0.00 57 1008.5
20260505091517 49 250 0.0 0.0 0.00 0.00 0.00 56 1008.5
20260505090053 50 256 0.0 0.9 0.00 0.00 0.00 59 1008.5
20260505084523 50 120 0.0 0.0 0.00 0.00 0.00 61 1008.5
20260505083049 51 113 0.0 0.0 0.00 0.00 0.00 63 1008.7
20260505081523 52 132 0.0 0.9 0.00 0.00 0.00 64 1008.8
20260505080051 52 122 0.0 1.7 0.00 0.00 0.00 64 1008.9
20260505074531 52 222 0.0 0.0 0.00 0.00 0.00 64 1008.9
20260505073027 53 223 0.0 0.0 0.00 0.00 0.00 64 1008.9
20260505071534 54 222 0.0 1.7 0.00 0.00 0.00 64 1008.9
20260505070011 54 277 0.0 2.6 0.00 0.00 0.00 64 1008.8
20260505064509 54 277 0.0 2.6 0.00 0.00 0.00 63 1008.9
20260505063006 55 257 0.0 1.7 0.00 0.00 0.00 62 1008.9
20260505061534 56 276 0.9 3.5 0.00 0.00 0.00 62 1009.0
20260505060018 56 286 0.9 4.3 0.00 0.00 0.00 61 1009.0
20260505054520 56 248 1.7 3.5 0.00 0.00 0.00 61 1009.1
20260505053017 56 277 1.7 5.2 0.00 0.00 0.00 60 1009.0
20260505051544 57 274 0.9 3.5 0.00 0.00 0.00 59 1009.2
20260505041604 58 276 0.0 3.5 0.00 0.00 0.00 56 1009.1
20260505040041 59 236 0.9 5.2 0.00 0.00 0.00 54 1009.0
20260505034516 59 213 1.7 4.3 0.00 0.00 0.00 54 1008.8
20260505033003 60 288 0.0 5.2 0.00 0.00 0.00 53 1008.8
20260505031506 60 290 0.9 3.5 0.00 0.00 0.00 52 1008.8
20260505030056 61 151 0.9 6.1 0.00 0.00 0.00 52 1008.7
20260505024525 61 276 0.9 6.1 0.00 0.00 0.00 51 1008.6
20260505023050 62 285 1.7 6.1 0.00 0.00 0.00 50 1008.6
20260505021549 62 273 2.6 7.0 0.00 0.00 0.00 49 1008.6
20260505020049 63 274 3.5 9.6 0.00 0.00 0.00 48 1008.4
20260505014536 63 281 3.5 11.3 0.00 0.00 0.00 48 1008.2
20260505013007 62 276 0.9 9.6 0.00 0.00 0.00 48 1008.0
20260505011509 60 200 0.0 1.7 0.00 0.00 0.00 50 1007.6
20260505010012 61 273 0.0 0.0 0.00 0.00 0.00 47 1007.2
20260505004547 62 273 0.0 0.0 0.00 0.00 0.00 45 1007.0
20260505003031 63 273 0.0 0.0 0.00 0.00 0.00 43 1006.7
20260505001554 64 273 0.0 0.0 0.00 0.00 0.00 41 1006.4
20260505000043 66 273 0.0 0.0 0.00 0.00 0.00 39 1006.1
20260504234523 67 259 0.0 0.9 0.00 0.00 0.00 37 1006.0
20260504233022 68 276 0.9 4.3 0.00 0.00 0.00 36 1005.9
20260504231503 69 274 0.0 0.9 0.00 0.00 0.00 35 1005.7
20260504230104 69 278 0.0 2.6 0.00 0.00 0.00 34 1005.5
20260504224510 70 293 0.0 1.7 0.00 0.00 0.00 34 1005.3
20260504223103 70 288 0.0 4.3 0.00 0.00 0.00 34 1005.2
20260504221557 70 283 0.9 4.3 0.00 0.00 0.00 33 1005.2
20260504220059 71 283 0.9 4.3 0.00 0.00 0.00 32 1005.2
20260504214543 72 285 3.5 11.3 0.00 0.00 0.00 31 1005.2
20260504213002 72 293 0.9 5.2 0.00 0.00 0.00 32 1005.1
20260504211543 72 285 2.6 7.0 0.00 0.00 0.00 31 1005.2
20260504210010 72 273 2.6 7.0 0.00 0.00 0.00 33 1005.1
20260504204550 72 288 0.9 6.1 0.00 0.00 0.00 32 1005.0
20260504203012 70 286 1.7 7.0 0.00 0.00 0.00 32 1005.2
20260504201552 72 285 3.5 7.8 0.00 0.00 0.00 31 1005.2
20260504200019 71 283 5.2 8.7 0.00 0.00 0.00 31 1005.1
20260504194558 72 268 3.5 6.1 0.00 0.00 0.00 30 1005.2
20260504193043 71 226 0.9 7.0 0.00 0.00 0.00 31 1005.3
20260504191503 72 224 2.6 7.0 0.00 0.00 0.00 30 1005.3
20260504190043 71 285 2.6 10.4 0.00 0.00 0.00 32 1005.2
20260504184507 69 298 1.7 11.3 0.00 0.00 0.00 32 1005.4
20260504183057 70 232 6.1 9.6 0.00 0.00 0.00 31 1005.6
20260504181556 69 260 2.6 9.6 0.00 0.00 0.00 31 1005.5
20260504180054 71 295 3.5 8.7 0.00 0.00 0.00 31 1005.5
20260504174518 70 276 3.5 8.7 0.00 0.00 0.00 31 1005.6
20260504173003 69 293 3.5 9.6 0.00 0.00 0.00 32 1005.8
20260504171502 69 264 4.3 12.2 0.00 0.00 0.00 32 1005.9